AAL3213 KMIA-TNCM

Flight info

Callsign AAL3213
Flight time N/A
Altitude 35000
Route KLADA2 BITAC Y290 SLUGO DCT
Aircraft B738/M-SDE3/2105

Departure

Time 2026-04-30 22:24
Airport Miami International Airport (KMIA)

Arrival

Time N/A
Airport Princess Juliana International Airport (TNCM)
Time Latitude Longitude Altitude Speed Heading
2026-04-30 21:56 25.79680 -80.28132 11 ft 0 kts 56°
2026-04-30 21:59 25.79681 -80.28132 11 ft 0 kts 56°
2026-04-30 22:10 25.79675 -80.28142 11 ft 2 kts 54°
2026-04-30 22:11 25.79658 -80.28162 11 ft 2 kts 17°
2026-04-30 22:11 25.79643 -80.28162 11 ft 2 kts 343°
2026-04-30 22:11 25.79631 -80.28154 11 ft 2 kts 309°
2026-04-30 22:12 25.79626 -80.28146 11 ft 1 kts 289°
2026-04-30 22:12 25.79625 -80.28140 11 ft 0 kts 290°
2026-04-30 22:14 25.79630 -80.28155 11 ft 5 kts 290°
2026-04-30 22:15 25.79640 -80.28228 11 ft 13 kts 270°
2026-04-30 22:15 25.79638 -80.28307 11 ft 18 kts 265°
2026-04-30 22:15 25.79626 -80.28448 11 ft 18 kts 264°
2026-04-30 22:15 25.79606 -80.28582 11 ft 16 kts 256°
2026-04-30 22:16 25.79577 -80.28702 11 ft 14 kts 255°
2026-04-30 22:16 25.79565 -80.28773 11 ft 7 kts 268°
2026-04-30 22:17 25.79565 -80.28783 11 ft 0 kts 273°
2026-04-30 22:19 25.79567 -80.28791 11 ft 4 kts 302°
2026-04-30 22:19 25.79763 -80.28816 11 ft 22 kts 358°
2026-04-30 22:20 25.79936 -80.28823 11 ft 23 kts 358°
2026-04-30 22:20 25.80008 -80.29001 11 ft 23 kts 266°
2026-04-30 22:20 25.79998 -80.29202 11 ft 26 kts 267°
2026-04-30 22:21 25.79991 -80.29401 11 ft 25 kts 268°
2026-04-30 22:21 25.79982 -80.29593 11 ft 24 kts 267°
2026-04-30 22:21 25.79976 -80.29775 11 ft 23 kts 267°
2026-04-30 22:21 25.79968 -80.29947 11 ft 22 kts 267°
2026-04-30 22:22 25.79963 -80.30032 11 ft 0 kts 266°
2026-04-30 22:22 25.79964 -80.30050 11 ft 4 kts 284°
2026-04-30 22:22 25.79982 -80.30088 11 ft 5 kts 298°
2026-04-30 22:22 25.80000 -80.30121 11 ft 4 kts 326°
2026-04-30 22:23 25.80044 -80.30124 11 ft 8 kts 10°
2026-04-30 22:23 25.80074 -80.30068 11 ft 9 kts 85°
2026-04-30 22:23 25.80079 -80.29984 11 ft 15 kts 88°
2026-04-30 22:23 25.80090 -80.29571 11 ft 95 kts 89°
2026-04-30 22:24 25.80130 -80.28541 11 ft 168 kts 85°
2026-04-30 22:24 25.80206 -80.27071 348 ft 205 kts 89°
2026-04-30 22:24 25.80266 -80.25416 1043 ft 229 kts 90°
2026-04-30 22:24 25.80078 -80.23671 1944 ft 224 kts 113°
2026-04-30 22:25 25.79219 -80.22308 2710 ft 221 kts 140°
2026-04-30 22:25 25.78004 -80.21211 3093 ft 230 kts 143°
2026-04-30 22:25 25.76753 -80.20121 3566 ft 225 kts 143°
2026-04-30 22:25 25.75598 -80.19122 4605 ft 210 kts 143°
2026-04-30 22:26 25.73856 -80.16155 5005 ft 254 kts 92°
2026-04-30 22:26 25.73821 -80.14133 5470 ft 272 kts 91°
2026-04-30 22:26 25.73576 -80.12045 5952 ft 278 kts 101°
2026-04-30 22:27 25.73132 -80.09898 6438 ft 292 kts 105°
2026-04-30 22:27 25.72480 -80.07767 6982 ft 298 kts 110°
2026-04-30 22:27 25.70928 -80.03494 7949 ft 303 kts 110°
2026-04-30 22:28 25.69419 -79.99134 9031 ft 304 kts 109°
2026-04-30 22:28 25.68681 -79.96925 9629 ft 308 kts 109°
2026-04-30 22:29 25.66433 -79.90144 11429 ft 322 kts 109°
2026-04-30 22:29 25.65650 -79.87789 12034 ft 324 kts 109°
2026-04-30 22:30 25.62510 -79.78353 13601 ft 374 kts 109°
2026-04-30 22:31 25.59650 -79.69795 14922 ft 407 kts 109°
2026-04-30 22:32 25.56462 -79.60925 16784 ft 420 kts 111°
2026-04-30 22:32 25.54221 -79.54898 17977 ft 427 kts 111°
2026-04-30 22:33 25.50815 -79.45667 19634 ft 437 kts 110°
2026-04-30 22:33 25.48516 -79.39411 20607 ft 444 kts 111°
2026-04-30 22:34 25.44966 -79.29758 22014 ft 454 kts 111°
2026-04-30 22:35 25.42583 -79.23292 22935 ft 459 kts 111°
2026-04-30 22:36 25.37691 -79.10048 24691 ft 472 kts 111°
2026-04-30 22:36 25.36445 -79.06679 25124 ft 475 kts 111°
2026-04-30 22:37 25.32663 -78.96478 26309 ft 485 kts 111°
2026-04-30 22:37 25.31367 -78.92985 26703 ft 488 kts 111°
2026-04-30 22:37 25.28785 -78.86040 27543 ft 493 kts 111°
2026-04-30 22:38 25.26172 -78.79022 28314 ft 498 kts 110°
2026-04-30 22:38 25.23532 -78.71948 29337 ft 496 kts 110°
2026-04-30 22:39 25.22227 -78.68457 29949 ft 493 kts 110°
2026-04-30 22:39 25.18346 -78.58086 31605 ft 485 kts 110°
2026-04-30 22:40 25.14286 -78.47859 32977 ft 481 kts 112°
2026-04-30 22:41 25.10125 -78.37868 34321 ft 478 kts 112°
2026-04-30 22:41 25.07365 -78.31226 34943 ft 478 kts 112°
2026-04-30 22:43 24.99141 -78.11318 34946 ft 476 kts 112°
2026-04-30 22:44 24.93636 -77.98014 34929 ft 478 kts 112°
2026-04-30 22:45 24.85384 -77.78153 34933 ft 476 kts 112°
2026-04-30 22:47 24.77118 -77.58353 34936 ft 477 kts 111°
2026-04-30 22:48 24.71411 -77.45218 34935 ft 476 kts 114°
2026-04-30 22:49 24.62438 -77.25817 34941 ft 476 kts 114°
2026-04-30 22:51 24.53509 -77.06406 34943 ft 474 kts 114°
2026-04-30 22:52 24.49047 -76.96720 34938 ft 473 kts 114°
2026-04-30 22:53 24.43109 -76.83866 34938 ft 473 kts 114°
2026-04-30 22:53 24.38648 -76.74235 34933 ft 472 kts 114°
2026-04-30 22:55 24.31239 -76.58277 34942 ft 471 kts 114°
2026-04-30 22:56 24.25283 -76.45491 34946 ft 469 kts 114°
2026-04-30 22:57 24.17858 -76.29595 34955 ft 468 kts 114°
2026-04-30 22:58 24.11924 -76.16931 34949 ft 469 kts 114°
2026-04-30 22:59 24.03019 -75.97996 34946 ft 467 kts 114°